Simultaneous Nadir Overpasses (SNOs) Predictions

Prediction of SNOs between LANDSAT-8 and NOAA-19 Satellite Orbit:

Table of predicted SNOs for the next 14.0 days since TLE Epoch: 1/25/2014
Index Date (LANDSAT-8) Time (LANDSAT-8) Lat,Lon (LANDSAT-8) SZA (LANDSAT-8 ) Date (NOAA-19) Time (NOAA-19) Lat,Lon (NOAA-19) SZA (NOAA-19 ) Distance(km) Time Diff (sec)
1 01/25/2014 05:01:42 -71.46, -76.81 89.61 01/25/2014 05:01:30 -71.45, -76.77 89.62 2.16 12
2 01/25/2014 05:51:19 70.82, 89.82 89.77 01/25/2014 05:52:27 70.84, 91.51 89.74 61.90 68
3 01/27/2014 09:45:58 -71.49,-147.84 90.13 01/27/2014 09:45:35 -71.49,-147.85 90.13 0.44 23
4 01/27/2014 10:35:27 71.29, 19.48 89.67 01/27/2014 10:36:39 71.25, 19.80 89.62 12.36 72
5 01/29/2014 14:30:14 -71.51, 141.12 90.70 01/29/2014 14:29:39 -71.49, 141.15 90.71 2.14 35
6 01/29/2014 15:19:41 71.41, -51.40 89.21 01/29/2014 15:20:46 71.42, -51.49 89.21 3.20 65
7 01/31/2014 19:14:29 -71.56, 70.13 91.25 01/31/2014 19:13:44 -71.56, 70.05 91.25 3.24 45
8 01/31/2014 20:03:57 71.41,-122.47 88.60 01/31/2014 20:04:50 71.44,-122.52 88.62 3.10 53
9 02/02/2014 23:58:45 -71.55, -0.96 91.89 02/02/2014 23:57:48 -71.57, -0.98 91.86 2.77 57
10 02/03/2014 00:48:12 71.45, 166.52 88.01 02/03/2014 00:48:54 71.47, 166.43 88.03 3.77 42
11 02/05/2014 04:43:00 -71.57, -71.99 92.52 02/05/2014 04:41:52 -71.60, -72.03 92.48 3.20 68
12 02/05/2014 05:32:27 71.48, 95.49 87.38 02/05/2014 05:32:57 71.46, 95.45 87.36 2.13 30
13 02/07/2014 09:27:12 -71.74,-
